sat.trackr.live / text

‹ back to catalog

STARLINK-33577

NORAD 62762 · 2025-015E

PAYLOAD ACTIVE UNKNOWN

§ Identity

Operator
Country
US
Launch date
2025-01-21
Launch site
AFWTR
Launch vehicle
Mass (kg)
RCS (m²)

Purposes: comms

External: N2YO · Heavens-Above · Gunter

§ Orbital elements

Epoch: 2026-05-25T04:47:03.096960Z

Period
94.01 min
Inclination
53.1589°
Eccentricity
0.0001116
Mean motion
15.31717153 rev/d
Perigee alt
469.9 km
Apogee alt
471.5 km
Semi-major
6,848.8 km
B*
7.6199e-4
RAAN
326.4692°
Arg perigee
63.7637°
Mean anomaly
296.3479°
Rev number
7,620

§ Raw data

STARLINK-335771 62762U 25015E   26145.19934140  .00023367  00000+0  76199-3 0  99902 62762  53.1589 326.4692 0001116  63.7637 296.3479 15.31717153 76208

JSON: /api/v1/satellites/62762 · /tle

For live sub-satellite position, see the globe view (requires WebGL).

§ Visibility from observer

Set your observer location to see the next 7 days of passes ≥ 10°. The values pass through the URL so the page stays shareable.

No JS? Fill the form by hand. The geolocation button needs JavaScript.